User: anonymous
Location: Pine Mountain Observatory
(43.7910°N, 120.9377°W)
Time: 17:25:48
(UTC-07:00)
Language:

Cosmos 1076 Rocket - Orbit

View from above orbital plane
View from above orbital plane
View from above satellite
View from above satellite

Ground track
Ground track

The orbit data is extracted from the following two-line orbital elements,

1 11267U 79011B   14264.66696628  .00000345  00000-0  34719-4 0  5290
2 11267 082.5227 092.8215 0015706 315.3060 088.3011 14.88201982926774
Epoch (UTC): 21 September 2014 16:00:25
Eccentricity: 0.0015706
inclination: 82.5227°
perigee height: 592 km
apogee height: 614 km
right ascension of ascending node: 92.8215°
argument of perigee: 315.3060°
revolutions per day: 14.88201982
mean anomaly at epoch: 88.3011°
orbit number at epoch: 92677

The dashed part of the orbit path shows where the satellite is in the earth's shadow,  

DLR